Regional Weather Roundup
Issued by NWS

Home | Current Version | Previous Version | Text Only | Print | Product List | Glossary On
Versions: 1 2 3 4 5 6 7 8 9 10 11 12 13 14 15 16 17 18 19 20 21 22 23 24 25 26 27 28 29 30 31 32 33 34 35 36 37 38 39 40 41 42 43 44 45 46 47 48 49 50
149
ASUS44 KFWD 290910
RWRTX
NORTH TEXAS HOURLY WEATHER ROUNDUP
NATIONAL WEATHER SERVICE FORT WORTH TX
400 AM CDT THU JUN 29 2017

NOTE: "FAIR" INDICATES FEW OR NO CLOUDS BELOW 12,000 FEET WITH NO
SIGNIFICANT WEATHER AND/OR OBSTRUCTIONS TO VISIBILITY.

TXZ118-119-291000-
DALLAS/FORT WORTH METROPLEX

CITY           SKY/WX    TMP DP  RH WIND       PRES   REMARKS
DFW AIRPORT    PTCLDY    77  72  84 S14       29.83F
DALLAS LOVE    PTCLDY    77  71  82 S17       29.85F
FTW MEACHAM    CLEAR     77  72  84 S17       29.84S
DAL-EXECUTIVE  CLEAR     75  72  90 S9        29.85S
FTW-ALLIANCE   CLEAR     76  71  85 S15G22    29.84S
FTW-NAS-JRB      N/A    N/A N/A N/A MISG      29.84F
FTW-SPINKS     CLEAR     75  70  85 S9        29.87S
ARLINGTON      CLEAR     76  72  87 SE12      29.85S
GRAND PRAIRIE  CLEAR     75  69  81 SE8       29.87S
ADDISON        CLEAR     75  71  86 S12       29.87S
MESQUITE       CLEAR     73  71  92 S8        29.86F
LANCASTER      CLEAR     73  71  91 SE6       29.87S
$$

TXZ091>094-102>105-117-120-121-131>134-291000-
NORTH CENTRAL TEXAS

CITY           SKY/WX    TMP DP  RH WIND       PRES   REMARKS
SHRMAN/DENISON CLEAR     74  70  86 SE16      29.85F
GAINESVILLE    CLEAR     74  70  88 S7        29.85F
BOWIE          CLEAR     75  69  82 SE10      29.83S
BRIDGEPORT     CLEAR     75  68  77 S8        29.85S
DECATUR        CLEAR     75  69  82 S8        29.84S
DENTON         CLEAR     76  71  85 S14       29.84S
MCKINNEY       CLEAR     76  73  91 S12       29.85F FOG
BONHAM         PTCLDY    73  70  88 S9        29.87S
GREENVILLE     PTCLDY    77  72  83 S7        29.87F
ROCKWALL       PTCLDY    74  72  94 S9        29.87S
TERRELL        CLEAR     74  71  91 SE6       29.87F
WAXAHACHIE     CLEAR     73  73 100 SE8       29.88S
CLEBURNE       CLEAR     73  73 100 S9        29.87F
GRANBURY       CLEAR     76  70  80 SE9       29.85F
$$

TXZ083>090-098>101-113>116-127>130-139>142-154-155-291000-
WESTERN NORTH TEXAS

CITY           SKY/WX    TMP DP  RH WIND       PRES   REMARKS
WICHITA FALLS  CLEAR     74  67  78 S16       29.79S
WF-KICKAPOO    CLEAR     74  68  82 SE8       29.82S
VERNON         CLEAR     78  63  60 S15       29.80S
ABILENE        PTCLDY    75  66  73 S14       29.83F
ABILENE-DYESS  PTCLDY    76  66  70 S10       29.82R
GRAHAM         CLEAR     75  68  77 SE9       29.81S
BRECKENRIDGE   CLEAR     77  67  71 S13       29.82F
CISCO          CLEAR     72  68  88 S13       29.85F
EASTLAND       CLEAR     73  69  86 S9G17     29.85S
RANGER         CLEAR     73  68  86 S10       29.85F
MINERAL WELLS  CLEAR     73  69  87 S10       29.82F
STEPHENVILLE   CLEAR     72  68  87 S5        29.88F
COMANCHE       CLEAR     72  72 100 S7        29.86F
BROWNWOOD      MOCLDY    73  68  83 S6        29.87S
COLEMAN        CLEAR     72  65  78 S6        29.87S
$$

TXZ143>147-156>162-174-175-291000-
CENTRAL TEXAS

CITY           SKY/WX    TMP DP  RH WIND       PRES   REMARKS
WACO           MOCLDY    75  72  90 SE10      29.86S
WACO-MCGREGOR  CLEAR     74  72  93 SE8       29.87S
HILLSBORO      CLEAR     74  72  94 SE8       29.87S
MEXIA          PTCLDY    72  69  89 SE5       29.87F
HEARNE         PTCLDY    73  73 100 CALM      29.87F
CAMERON        PTCLDY    74  72  92 CALM      29.86F
TEMPLE         CLOUDY    75  72  90 SE10      29.87F
KILLEEN        MOCLDY    72  72 100 S3        29.86S
KILLEEN-SKYLRK CLEAR     74  72  93 S7        29.87F
FORT HOOD      CLEAR     73  71  94 SE6       29.84F
HAMILTON       CLEAR     72  72 100 SW7       29.88F
LAMPASAS         N/A     73  71  95 CALM      29.87F
$$

TXZ095>097-106>112-122>126-135>138-148>153-164>167-291000-
EAST TEXAS

CITY           SKY/WX    TMP DP  RH WIND       PRES   REMARKS
PARIS            N/A     72  70  93 SE6       29.88F
SULPHUR SPRNGS CLEAR     75  72  88 S8        29.89F
MOUNT PLEASANT CLEAR     72  72 100 CALM      29.90S
GILMER         PTCLDY    73  70  91 SE5       29.89S
MINEOLA        CLEAR     73  72  94 SE3       29.88S
TYLER          CLEAR     74  72  93 SE8       29.88F
LONGVIEW       PTCLDY    73  72  96 S7        29.89S
MARSHALL         N/A     73  70  91 CALM      29.92S
ATHENS         CLEAR     72  72 100 CALM      29.87F
PALESTINE      CLEAR     73  72  97 SE3       29.90S
JACKSONVILLE   PTCLDY    72  72  99 SE6       29.91F
HENDERSON      MOCLDY    73  71  94 SE3       29.90F
CENTER         PTSUNNY   78  75  92 SE5       29.91F
NACOGDOCHES    PTCLDY    72  70  94 SE3       29.87F
LUFKIN         CLOUDY    72  71  97 SE6       29.88F
$$

SUPPLEMENTAL OBSERVATIONS (NWS FORT WORTH AREA)

CITY           SKY/WX    TMP DP  RH WIND       PRES   REMARKS
CADDO GRASSLND   N/A     73  68  83 S6          N/A
LBJ GRASSLAND    N/A     75  68  78 SE8         N/A
POSSUM KINGDOM   N/A     75  68  78 S6G14       N/A
GRANBURY         N/A     75  68  78 SE10        N/A
MCGREGOR         N/A     73  70  88 S8          N/A
TEMPLE           N/A     73  68  83 SE2         N/A
$$

SUPPLEMENTAL OBSERVATIONS (NWS NORMAN AREA)

CITY           SKY/WX    TMP DP  RH WIND       PRES   REMARKS
GOODLETT         N/A     76  64  66 S12       29.78
ODELL            N/A     76  67  74 S16       29.80S
CROWELL          N/A     75  66  73 S13       29.80S
KNOX CITY        N/A     76  63  63 S12       29.81
MILLERS CREEK    N/A     75  66  73 S14         N/A
$$

SUPPLEMENTAL OBSERVATIONS (NWS SAN ANGELO AREA)

CITY           SKY/WX    TMP DP  RH WIND       PRES   REMARKS
WEINERT          N/A     77  66  68 S16       29.82S
HASKELL          N/A     76  63  64 S7        29.82
THROCKMORTON     N/A     74  68  81 S8        29.82F
STAMFORD         N/A     78  66  67 S13       29.83R
CLYDE            N/A     73  66  80 S10       29.86S
HAMBY            N/A     77  64  65 S15         N/A
$$

SUPPLEMENTAL OBSERVATIONS (NWS SHREVEPORT AREA)

CITY           SKY/WX    TMP DP  RH WIND       PRES   REMARKS
TEXARKANA        N/A     72  70  94 CALM        N/A
LINDEN           N/A     72  68  88 CALM        N/A
LUFKIN           N/A     73  70  88 MISG        N/A
N SABINE NF      N/A     75  72  88 MISG        N/A
$$

SUPPLEMENTAL OBSERVATIONS ARE A COLLECTION OF AUTOMATED INSTRUMENTS
THAT ARE MAINTAINED BY A VARIETY OF FEDERAL AND STATE AGENCIES.
CERTAIN ELEMENTS...SUCH AS HUMIDITY VALUES AND SUSTAINED WIND
SPEEDS...MAY BE APPROXIMATED.





USA.gov is the U.S. government's official web portal to all federal, state and local government web resources and services.